Multibeam Report for AT29-02


Ship Name: Atlantis
Chief Scientist: Valentine, David
University of California, Santa Barbara
Source Organization: Rolling Deck to Repository
Start Date: 2015-06-15
End Date: 2015-06-29


View ISO Metadata

Visit the full NCEI Bathymetry Viewer


Multibeam Bathymetry

Cruise Details

Project: Oxygenation of Hydrocarbons in the Ocean
Instrument: Kongsberg EM122

Data Quality

Number of Files: 203
Number of Records: 380065
BATHYMETRY DATA Quantity Percentage
Number of Beams 164157840 100%
Number of Good Beams 158509317 96.56%
Number of Zero Beams 544 0.0%
Number of Flagged Beams 5647979 3.44%
AMPLITUDE DATA Quantity Percentage
Number of Beams 164157840 100%
Number of Good Beams 158509317 96.56%
Number of Zero Beams 544 0.0%
Number of Flagged Beams 5647979 3.44%
SIDESCAN DATA Quantity Percentage
Number of Pixels 389114880 100%
Number of Good Pixels 351121778 90.24%
Number of Zero Pixels 0 0%
Number of Flagged Pixels 37993102 9.76%

Navigation Totals

Total Time: 127.5741 hours
Total Track Length: 2332.565 km
Average Speed: 18.284 km/hr (9.8726 knots)

Cruise Bounds

Northern Extent: 27.60777
Southern Extent: 26.930824
Western Extent: -92.11148
Eastern Extent: -83.28891

Limits

Minimum Sonar Depth 4.1545 Maximum Sonar Depth 7.135
Minimum Altitude 31.6781 Maximum Altitude 3391.4463
Minimum Depth 24.8907 Maximum Depth 3406.1658
Minimum Amplitude 0 Maximum Amplitude 14.4
Minimum Sidescan 0 Maximum Sidescan 327.58

File Information

Full Resolution Bathymetry as collected (raw): 200

Files File Size Description
0000_20150615_181316_Atlantis.all.mb58.gz 0.75MB Kongsberg multibeam vendor format
0000_20150615_184537_Atlantis.all.mb58.gz 308.59MB Kongsberg multibeam vendor format
0001_20150615_194536_Atlantis.all.mb58.gz 297.40MB Kongsberg multibeam vendor format
0002_20150615_204327_Atlantis.all.mb58.gz 272.74MB Kongsberg multibeam vendor format
0003_20150615_213627_Atlantis.all.mb58.gz 308.77MB Kongsberg multibeam vendor format
0004_20150615_223626_Atlantis.all.mb58.gz 309.23MB Kongsberg multibeam vendor format
0005_20150615_233626_Atlantis.all.mb58.gz 298.25MB Kongsberg multibeam vendor format
0006_20150616_003400_Atlantis.all.mb58.gz 269.42MB Kongsberg multibeam vendor format
0007_20150616_013359_Atlantis.all.mb58.gz 200.01MB Kongsberg multibeam vendor format
0008_20150616_023400_Atlantis.all.mb58.gz 18.24MB Kongsberg multibeam vendor format
0009_20150616_024052_Atlantis.all.mb58.gz 117.37MB Kongsberg multibeam vendor format
0010_20150616_033515_Atlantis.all.mb58.gz 91.99MB Kongsberg multibeam vendor format
0011_20150616_043512_Atlantis.all.mb58.gz 57.03MB Kongsberg multibeam vendor format
0012_20150616_053514_Atlantis.all.mb58.gz 26.70MB Kongsberg multibeam vendor format
0013_20150616_063514_Atlantis.all.mb58.gz 26.80MB Kongsberg multibeam vendor format
0014_20150616_073520_Atlantis.all.mb58.gz 12.32MB Kongsberg multibeam vendor format
0015_20150616_080254_Atlantis.all.mb58.gz 26.83MB Kongsberg multibeam vendor format
0016_20150616_090245_Atlantis.all.mb58.gz 27.01MB Kongsberg multibeam vendor format
0017_20150616_100244_Atlantis.all.mb58.gz 27.26MB Kongsberg multibeam vendor format
0018_20150616_110245_Atlantis.all.mb58.gz 27.64MB Kongsberg multibeam vendor format
0019_20150616_120247_Atlantis.all.mb58.gz 27.84MB Kongsberg multibeam vendor format
0020_20150616_130247_Atlantis.all.mb58.gz 8.84MB Kongsberg multibeam vendor format
0021_20150616_132143_Atlantis.all.mb58.gz 27.97MB Kongsberg multibeam vendor format
0022_20150616_142129_Atlantis.all.mb58.gz 3.79MB Kongsberg multibeam vendor format
0023_20150616_161130_Atlantis.all.mb58.gz 18.11MB Kongsberg multibeam vendor format
0024_20150616_164959_Atlantis.all.mb58.gz 132.2KB Kongsberg multibeam vendor format
0025_20150616_165015_Atlantis.all.mb58.gz 28.53MB Kongsberg multibeam vendor format
0026_20150616_175007_Atlantis.all.mb58.gz 28.88MB Kongsberg multibeam vendor format
0027_20150616_185008_Atlantis.all.mb58.gz 14.60MB Kongsberg multibeam vendor format
0028_20150616_192018_Atlantis.all.mb58.gz 195.3KB Kongsberg multibeam vendor format
0029_20150616_192040_Atlantis.all.mb58.gz 4.71MB Kongsberg multibeam vendor format
0029_20150616_193130_Atlantis.all.mb58.gz 25.96MB Kongsberg multibeam vendor format
0030_20150616_202449_Atlantis.all.mb58.gz 11.24MB Kongsberg multibeam vendor format
0031_20150616_204743_Atlantis.all.mb58.gz 11.54MB Kongsberg multibeam vendor format
0032_20150616_211110_Atlantis.all.mb58.gz 29.81MB Kongsberg multibeam vendor format
0033_20150616_221112_Atlantis.all.mb58.gz 30.61MB Kongsberg multibeam vendor format
0034_20150616_231111_Atlantis.all.mb58.gz 4.32MB Kongsberg multibeam vendor format
0035_20150616_231935_Atlantis.all.mb58.gz 12.52MB Kongsberg multibeam vendor format
0036_20150616_234356_Atlantis.all.mb58.gz 23.04MB Kongsberg multibeam vendor format
0037_20150617_002808_Atlantis.all.mb58.gz 15.25MB Kongsberg multibeam vendor format
0038_20150617_005324_Atlantis.all.mb58.gz 43.54MB Kongsberg multibeam vendor format
0039_20150617_014544_Atlantis.all.mb58.gz 20.20MB Kongsberg multibeam vendor format
0040_20150617_020922_Atlantis.all.mb58.gz 44.90MB Kongsberg multibeam vendor format
0041_20150617_043056_Atlantis.all.mb58.gz 13.42MB Kongsberg multibeam vendor format
0042_20150617_044652_Atlantis.all.mb58.gz 49.38MB Kongsberg multibeam vendor format
0043_20150617_054648_Atlantis.all.mb58.gz 9.71MB Kongsberg multibeam vendor format
0044_20150617_055847_Atlantis.all.mb58.gz 19.07MB Kongsberg multibeam vendor format
0045_20150617_062223_Atlantis.all.mb58.gz 17.31MB Kongsberg multibeam vendor format
0046_20150617_064346_Atlantis.all.mb58.gz 18.79MB Kongsberg multibeam vendor format
0047_20150617_070706_Atlantis.all.mb58.gz 48.95MB Kongsberg multibeam vendor format
0048_20150617_080703_Atlantis.all.mb58.gz 49.42MB Kongsberg multibeam vendor format
0049_20150617_090700_Atlantis.all.mb58.gz 49.26MB Kongsberg multibeam vendor format
0050_20150617_100704_Atlantis.all.mb58.gz 1.58MB Kongsberg multibeam vendor format
0051_20150617_100858_Atlantis.all.mb58.gz 9.30MB Kongsberg multibeam vendor format
0052_20150617_102006_Atlantis.all.mb58.gz 49.86MB Kongsberg multibeam vendor format
0053_20150617_112007_Atlantis.all.mb58.gz 51.80MB Kongsberg multibeam vendor format
0054_20150617_122006_Atlantis.all.mb58.gz 50.32MB Kongsberg multibeam vendor format
0055_20150617_132008_Atlantis.all.mb58.gz 52.05MB Kongsberg multibeam vendor format
0056_20150617_141802_Atlantis.all.mb58.gz 41.87MB Kongsberg multibeam vendor format
0058_20150617_164003_Atlantis.all.mb58.gz 63.30MB Kongsberg multibeam vendor format
0059_20150617_174001_Atlantis.all.mb58.gz 62.56MB Kongsberg multibeam vendor format
0060_20150617_184001_Atlantis.all.mb58.gz 62.42MB Kongsberg multibeam vendor format
0061_20150617_194001_Atlantis.all.mb58.gz 4.69MB Kongsberg multibeam vendor format
0062_20150617_194431_Atlantis.all.mb58.gz 61.66MB Kongsberg multibeam vendor format
0063_20150617_204431_Atlantis.all.mb58.gz 17.16MB Kongsberg multibeam vendor format
0064_20150617_221936_Atlantis.all.mb58.gz 61.78MB Kongsberg multibeam vendor format
0065_20150617_231937_Atlantis.all.mb58.gz 60.52MB Kongsberg multibeam vendor format
0066_20150618_001936_Atlantis.all.mb58.gz 5.65MB Kongsberg multibeam vendor format
0067_20150618_002530_Atlantis.all.mb58.gz 56.54MB Kongsberg multibeam vendor format
0068_20150618_012529_Atlantis.all.mb58.gz 1.08MB Kongsberg multibeam vendor format
0069_20150618_012636_Atlantis.all.mb58.gz 56.90MB Kongsberg multibeam vendor format
0070_20150618_022636_Atlantis.all.mb58.gz 15.67MB Kongsberg multibeam vendor format
0071_20150618_024304_Atlantis.all.mb58.gz 25.45MB Kongsberg multibeam vendor format
0072_20150618_030930_Atlantis.all.mb58.gz 58.60MB Kongsberg multibeam vendor format
0073_20150618_040932_Atlantis.all.mb58.gz 57.52MB Kongsberg multibeam vendor format
0074_20150618_050931_Atlantis.all.mb58.gz 55.04MB Kongsberg multibeam vendor format
0075_20150618_060934_Atlantis.all.mb58.gz 19.97MB Kongsberg multibeam vendor format
0076_20150618_063248_Atlantis.all.mb58.gz 38.33MB Kongsberg multibeam vendor format
0077_20150618_071602_Atlantis.all.mb58.gz 51.36MB Kongsberg multibeam vendor format
0078_20150618_081559_Atlantis.all.mb58.gz 50.91MB Kongsberg multibeam vendor format
0079_20150618_091601_Atlantis.all.mb58.gz 15.90MB Kongsberg multibeam vendor format
0080_20150620_222837_Atlantis.all.mb58.gz 36.42MB Kongsberg multibeam vendor format
0081_20150620_230644_Atlantis.all.mb58.gz 57.49MB Kongsberg multibeam vendor format
0082_20150621_000643_Atlantis.all.mb58.gz 56.94MB Kongsberg multibeam vendor format
0083_20150621_010731_Atlantis.all.mb58.gz 0.73MB Kongsberg multibeam vendor format
0084_20150621_211603_Atlantis.all.mb58.gz 47.76MB Kongsberg multibeam vendor format
0085_20150621_221128_Atlantis.all.mb58.gz 15.03MB Kongsberg multibeam vendor format
0086_20150621_222557_Atlantis.all.mb58.gz 45.58MB Kongsberg multibeam vendor format
0087_20150621_231111_Atlantis.all.mb58.gz 60.44MB Kongsberg multibeam vendor format
0088_20150622_001114_Atlantis.all.mb58.gz 62.61MB Kongsberg multibeam vendor format
0089_20150622_011112_Atlantis.all.mb58.gz 24.42MB Kongsberg multibeam vendor format
0090_20150622_013433_Atlantis.all.mb58.gz 61.36MB Kongsberg multibeam vendor format
0091_20150622_023432_Atlantis.all.mb58.gz 11.64MB Kongsberg multibeam vendor format
0092_20150622_024554_Atlantis.all.mb58.gz 39.99MB Kongsberg multibeam vendor format
0093_20150622_032427_Atlantis.all.mb58.gz 63.11MB Kongsberg multibeam vendor format
0094_20150622_042428_Atlantis.all.mb58.gz 9.54MB Kongsberg multibeam vendor format
0095_20150622_043330_Atlantis.all.mb58.gz 3.56MB Kongsberg multibeam vendor format
0096_20150622_043654_Atlantis.all.mb58.gz 41.40MB Kongsberg multibeam vendor format
0097_20150622_051657_Atlantis.all.mb58.gz 59.94MB Kongsberg multibeam vendor format
0098_20150622_061657_Atlantis.all.mb58.gz 17.52MB Kongsberg multibeam vendor format
0099_20150622_063515_Atlantis.all.mb58.gz 56.07MB Kongsberg multibeam vendor format
0100_20150622_073516_Atlantis.all.mb58.gz 5.60MB Kongsberg multibeam vendor format
0101_20150622_074202_Atlantis.all.mb58.gz 51.75MB Kongsberg multibeam vendor format
0102_20150622_084200_Atlantis.all.mb58.gz 5.79MB Kongsberg multibeam vendor format
0103_20150622_084830_Atlantis.all.mb58.gz 53.54MB Kongsberg multibeam vendor format
0106_20150623_212945_Atlantis.all.mb58.gz 52.01MB Kongsberg multibeam vendor format
0107_20150623_222948_Atlantis.all.mb58.gz 55.16MB Kongsberg multibeam vendor format
0108_20150623_232946_Atlantis.all.mb58.gz 31.62MB Kongsberg multibeam vendor format
0109_20150624_000625_Atlantis.all.mb58.gz 59.46MB Kongsberg multibeam vendor format
0110_20150624_010618_Atlantis.all.mb58.gz 60.78MB Kongsberg multibeam vendor format
0111_20150624_020617_Atlantis.all.mb58.gz 6.12MB Kongsberg multibeam vendor format
0112_20150624_021232_Atlantis.all.mb58.gz 35.81MB Kongsberg multibeam vendor format
0113_20150624_024751_Atlantis.all.mb58.gz 0.54MB Kongsberg multibeam vendor format
0114_20150624_024824_Atlantis.all.mb58.gz 9.53MB Kongsberg multibeam vendor format
0115_20150624_025758_Atlantis.all.mb58.gz 14.04MB Kongsberg multibeam vendor format
0116_20150624_213103_Atlantis.all.mb58.gz 198.4KB Kongsberg multibeam vendor format
0117_20150624_213114_Atlantis.all.mb58.gz 61.06MB Kongsberg multibeam vendor format
0118_20150624_223114_Atlantis.all.mb58.gz 10.80MB Kongsberg multibeam vendor format
0119_20150624_224124_Atlantis.all.mb58.gz 3.85MB Kongsberg multibeam vendor format
0120_20150625_213025_Atlantis.all.mb58.gz 66.90MB Kongsberg multibeam vendor format
0121_20150625_223026_Atlantis.all.mb58.gz 17.95MB Kongsberg multibeam vendor format
0122_20150625_224822_Atlantis.all.mb58.gz 390.9KB Kongsberg multibeam vendor format
0123_20150625_224844_Atlantis.all.mb58.gz 7.41MB Kongsberg multibeam vendor format
0124_20150625_225604_Atlantis.all.mb58.gz 22.51MB Kongsberg multibeam vendor format
0125_20150625_231830_Atlantis.all.mb58.gz 0.63MB Kongsberg multibeam vendor format
0126_20150625_231907_Atlantis.all.mb58.gz 33.52MB Kongsberg multibeam vendor format
0127_20150625_235200_Atlantis.all.mb58.gz 15.56MB Kongsberg multibeam vendor format
0128_20150626_000732_Atlantis.all.mb58.gz 9.71MB Kongsberg multibeam vendor format
0129_20150626_001659_Atlantis.all.mb58.gz 3.58MB Kongsberg multibeam vendor format
0130_20150626_002028_Atlantis.all.mb58.gz 4.86MB Kongsberg multibeam vendor format
0131_20150626_213438_Atlantis.all.mb58.gz 60.77MB Kongsberg multibeam vendor format
0132_20150626_223438_Atlantis.all.mb58.gz 21.46MB Kongsberg multibeam vendor format
0133_20150626_225458_Atlantis.all.mb58.gz 48.98MB Kongsberg multibeam vendor format
0134_20150626_234240_Atlantis.all.mb58.gz 52.83MB Kongsberg multibeam vendor format
0135_20150627_004241_Atlantis.all.mb58.gz 52.27MB Kongsberg multibeam vendor format
0136_20150627_014246_Atlantis.all.mb58.gz 33.45MB Kongsberg multibeam vendor format
0137_20150627_035613_Atlantis.all.mb58.gz 48.37MB Kongsberg multibeam vendor format
0138_20150627_045615_Atlantis.all.mb58.gz 53.78MB Kongsberg multibeam vendor format
0139_20150627_055615_Atlantis.all.mb58.gz 56.17MB Kongsberg multibeam vendor format
0140_20150627_065612_Atlantis.all.mb58.gz 13.33MB Kongsberg multibeam vendor format
0142_20150627_071003_Atlantis.all.mb58.gz 54.73MB Kongsberg multibeam vendor format
0143_20150627_081002_Atlantis.all.mb58.gz 19.80MB Kongsberg multibeam vendor format
0144_20150627_083431_Atlantis.all.mb58.gz 49.29MB Kongsberg multibeam vendor format
0145_20150627_093432_Atlantis.all.mb58.gz 23.89MB Kongsberg multibeam vendor format
0146_20150627_100424_Atlantis.all.mb58.gz 49.22MB Kongsberg multibeam vendor format
0147_20150627_110420_Atlantis.all.mb58.gz 42.18MB Kongsberg multibeam vendor format
0149_20150627_221240_Atlantis.all.mb58.gz 378.2KB Kongsberg multibeam vendor format
0150_20150627_221301_Atlantis.all.mb58.gz 9.19MB Kongsberg multibeam vendor format
0151_20150627_222216_Atlantis.all.mb58.gz 57.94MB Kongsberg multibeam vendor format
0152_20150627_232210_Atlantis.all.mb58.gz 49.76MB Kongsberg multibeam vendor format
0153_20150628_002212_Atlantis.all.mb58.gz 22.61MB Kongsberg multibeam vendor format
0154_20150628_004947_Atlantis.all.mb58.gz 10.24MB Kongsberg multibeam vendor format
0155_20150628_010219_Atlantis.all.mb58.gz 17.63MB Kongsberg multibeam vendor format
0156_20150628_012357_Atlantis.all.mb58.gz 12.38MB Kongsberg multibeam vendor format
0157_20150628_013912_Atlantis.all.mb58.gz 4.21MB Kongsberg multibeam vendor format
0158_20150628_014420_Atlantis.all.mb58.gz 49.43MB Kongsberg multibeam vendor format
0159_20150628_024413_Atlantis.all.mb58.gz 49.42MB Kongsberg multibeam vendor format
0160_20150628_034414_Atlantis.all.mb58.gz 48.46MB Kongsberg multibeam vendor format
0161_20150628_044409_Atlantis.all.mb58.gz 48.68MB Kongsberg multibeam vendor format
0162_20150628_054412_Atlantis.all.mb58.gz 43.93MB Kongsberg multibeam vendor format
0163_20150628_063649_Atlantis.all.mb58.gz 11.35MB Kongsberg multibeam vendor format
0164_20150628_065022_Atlantis.all.mb58.gz 50.84MB Kongsberg multibeam vendor format
0165_20150628_075017_Atlantis.all.mb58.gz 49.10MB Kongsberg multibeam vendor format
0166_20150628_085014_Atlantis.all.mb58.gz 5.86MB Kongsberg multibeam vendor format
0167_20150628_085730_Atlantis.all.mb58.gz 35.58MB Kongsberg multibeam vendor format
0168_20150628_094148_Atlantis.all.mb58.gz 44.96MB Kongsberg multibeam vendor format
0169_20150628_104141_Atlantis.all.mb58.gz 17.68MB Kongsberg multibeam vendor format
0170_20150628_111709_Atlantis.all.mb58.gz 29.34MB Kongsberg multibeam vendor format
0171_20150628_121656_Atlantis.all.mb58.gz 29.12MB Kongsberg multibeam vendor format
0172_20150628_131702_Atlantis.all.mb58.gz 28.69MB Kongsberg multibeam vendor format
0173_20150628_141657_Atlantis.all.mb58.gz 28.28MB Kongsberg multibeam vendor format
0174_20150628_151657_Atlantis.all.mb58.gz 7.04MB Kongsberg multibeam vendor format
0175_20150628_153200_Atlantis.all.mb58.gz 27.82MB Kongsberg multibeam vendor format
0176_20150628_163152_Atlantis.all.mb58.gz 27.53MB Kongsberg multibeam vendor format
0177_20150628_173151_Atlantis.all.mb58.gz 27.14MB Kongsberg multibeam vendor format
0178_20150628_183151_Atlantis.all.mb58.gz 26.98MB Kongsberg multibeam vendor format
0179_20150628_193154_Atlantis.all.mb58.gz 3.21MB Kongsberg multibeam vendor format
0180_20150628_193905_Atlantis.all.mb58.gz 26.68MB Kongsberg multibeam vendor format
0181_20150628_203852_Atlantis.all.mb58.gz 0.83MB Kongsberg multibeam vendor format
0182_20150628_204042_Atlantis.all.mb58.gz 27.51MB Kongsberg multibeam vendor format
0183_20150628_214029_Atlantis.all.mb58.gz 58.70MB Kongsberg multibeam vendor format
0184_20150628_223438_Atlantis.all.mb58.gz 99.95MB Kongsberg multibeam vendor format
0185_20150628_233434_Atlantis.all.mb58.gz 12.81MB Kongsberg multibeam vendor format
0186_20150628_234050_Atlantis.all.mb58.gz 62.24MB Kongsberg multibeam vendor format
0187_20150629_000730_Atlantis.all.mb58.gz 8.61MB Kongsberg multibeam vendor format
0188_20150629_001049_Atlantis.all.mb58.gz 175.54MB Kongsberg multibeam vendor format
0189_20150629_010550_Atlantis.all.mb58.gz 257.22MB Kongsberg multibeam vendor format
0190_20150629_020515_Atlantis.all.mb58.gz 102.06MB Kongsberg multibeam vendor format
0191_20150629_022457_Atlantis.all.mb58.gz 49.71MB Kongsberg multibeam vendor format
0192_20150629_023432_Atlantis.all.mb58.gz 122.46MB Kongsberg multibeam vendor format
0193_20150629_025811_Atlantis.all.mb58.gz 309.40MB Kongsberg multibeam vendor format
0194_20150629_035810_Atlantis.all.mb58.gz 308.77MB Kongsberg multibeam vendor format
0195_20150629_045810_Atlantis.all.mb58.gz 21.35MB Kongsberg multibeam vendor format
0196_20150629_050219_Atlantis.all.mb58.gz 308.49MB Kongsberg multibeam vendor format
0197_20150629_060219_Atlantis.all.mb58.gz 110.82MB Kongsberg multibeam vendor format
0198_20150629_062352_Atlantis.all.mb58.gz 308.34MB Kongsberg multibeam vendor format
0199_20150629_072352_Atlantis.all.mb58.gz 54.91MB Kongsberg multibeam vendor format
9999.all.mb58.gz 276.5KB Kongsberg multibeam vendor format
9999_150617210201_tmp.all.mb58.gz 223.7KB Kongsberg multibeam vendor format
9999_150623004937_tmp.all.mb58.gz 5.27MB Kongsberg multibeam vendor format

Metadata Files: 2

Files File Size Description
AT29-02_Multibeam.xml NGDC created ISO metadata
em122_bag_info.tar.gz 15.6KB Additional cruise information

Water Column Sonar Data

Water Column Sonar Data Available: WCSD Map Viewer